Starlink 5138

operational
NORAD ID: 54078 Int'l Des: 2022-136 Owner: SPXS Country: US Constellation: starlink
LEOCIRCULAR

Über Starlink 5138

Beschreibung wird geladen...

Live-Position

3D-Globus wird geladen...

Nächste Überflüge

Höhenverlauf

Altitude vs Time

uPlot chart will show altitude changes over time

Zweizeiliger Elementsatz

1 54078U 22136AD 25260.25009259 .00121963 00000-0 55384-2 0 9994
2 54078 53.2185 22.3899 0001296 58.2530 21.6521 15.19849861 5659
Epoch: 17. Sept. 2025 • Age: 22 hours

Aktueller Status

Höhe 511.3 km
Geschwindigkeit 7.61 km/s
Subsatellitenpunkt -20.42°S, 49.61°W
Startdatum 20. Okt. 2022
Alter 2.9 years
Typ internet

Technische Details

Klassifizierung Payload
Masse 305.00 kg
Trockenmasse 290.00 kg
Gesamtmasse 305.00 kg
Länge 0.20 m
Durchmesser 2.80 m
Spannweite 9.00 m
Form Box + pan
Hersteller SPXS
Bus-Typ Starlink
Phasenstatus In Orbit
Besitzer/Staat SPXS/US

Große Konstellationen

Loading constellations...